CZ-3C DEB, 39347

Orbit data source: Space-Track

CZ-3C DEB, 39347 is space debris in HEO originally from a launch on Sun, 31 Oct 2010 UTC launched from the Xichang Space Center, China (XSC). Debris objects in space refer to the collection of defunct objects orbiting the Earth. Examples of debris include non-operational satellites, rocket bodies, and fragments generated from explosions, collisions, or faulty payload assembly.

Loading next visibility...
Identifier
39347, 2010-057M
Orbit
HEO
Country
Flag of CNCN / PRC
Related business
Manufacturer
CALT
Mission
Spacecraft
Bus & Motor
Unknown
Mass
Unknown
Launch date (UTC)
2010-10-31 (15 years ago)
Launch vehicle
Unknown
Launch site
Xichang Space Center, China (XSC)
Object type
Payload
Rocket body
Debris
Shape & HBR
Unknown shape, 0.9 m
Radar Cross Section
Large (>1 m²)

Expand to show TLE details & history
Last TLE update: 19 hours ago

TLE from 19 hours ago
0 CZ-3C DEB
1 39347U 10057M   25346.56686866  .00045996  00000-0  17413-1 0  9990
2 39347  20.5139  10.6539 6687715 253.8077  27.6647  3.03836106116408
Epoch: 2025-12-12T13:36Z
TLE epoch observation values (Epoch: 2025-12-12T13:36:17.452Z)
Latitude
-0.00015°
Longitude
85.07973°
Altitude
7,293.653 km
Speed
6.206 km/s
True Right ascension
00h 42m 38s
True Declination
0° 00' 01"
Sunlit
Object was in daylight at epoch
Visualization orbit readout
Latitude
Unknown
Longitude
Unknown
Altitude
Unknown
Speed
Unknown
Apparent Right ascension
Unknown
Apparent Declination
Unknown
Sunlit
N/A
Visualization observer readout
Local Sidereal Time
07:32:43
Azimuth
Unknown
Elevation
Unknown
Doppler factor
Unknown
Orbital elements
Apogee altitude
27,231.698 km
Perigee altitude
292.959 km
Semi-major axis
20,140.466 km
Eccentricity
0.66877
Inclination
20.5139°
RAAN
10.6539°
Arg. of periapsis
253.8077°
True anomaly
106.08562°
Mean anomaly
27.6647°
Eccentric anomaly
61.26316°
Mean motion
0.75934 °/min
Orbital period
474.09 mins
BSTAR
0.017413
Loading maneuver chart data...
Computing Atmospheric mass density...
Loading historical data...
Loading historical data...
Loading historical data...
Loading historical data...
Loading historical data...
Loading historical data...
Loading historical data...

Documentation

Showing up to 5 results
|